SL-12 R/B(2), 21019

Orbit data source: Space-Track

SL-12 R/B(2), 21019 is space debris in GEO originally from a launch on Thu, 20 Dec 1990 UTC launched from the Tyuratam Missile And Space Complex (TTMTR). Debris objects in space refer to the collection of defunct objects orbiting the Earth. Examples of debris include non-operational satellites, rocket bodies, and fragments generated from explosions, collisions, or faulty payload assembly.

Not visible in the next 10 days
Identifier
21019, 1990-112D
Orbit
GEO
Country
Flag of CISCIS
Related business
Manufacturer
NPO Energiya
Mission
Spacecraft
Bus & Motor
BLOK DM, Unknown motor
Mass
2,440 kg wet, 2,440 kg dry
Launch date (UTC)
1990-12-20 (35 years ago)
Launch vehicle
Unknown
Launch site
Tyuratam Missile And Space Complex (TTMTR)
Object type
Payload
Rocket body
Debris
Shape & HBR
Cyl, 3.1 m
Radar Cross Section
23.597 m², Large (>1 m²)

Expand to show TLE details & history
Last TLE update: 14 hours ago

TLE from 14 hours ago
0 SL-12 R/B(2)
1 21019U 90112D   25260.80878385  .00000050  00000-0  00000-0 0  9993
2 21019  13.1401 339.9780 0027659 178.6598 189.3573  1.00011440117216
Epoch: 2025-09-17T19:24Z
TLE epoch observation values (Epoch: 2025-09-17T19:24:38.924Z)
Latitude
1.79859°
Longitude
59.59229°
Altitude
35,974.934 km
Speed
3.064 km/s
True Right ascension
23h 10m 56s
True Declination
1° 47' 48"
Sunlit
Object was in partial shadow at epoch
Visualization orbit readout
Latitude
Unknown
Longitude
Unknown
Altitude
Unknown
Speed
Unknown
Apparent Right ascension
Unknown
Apparent Declination
Unknown
Sunlit
N/A
Visualization observer readout
Local Sidereal Time
02:26:51
Azimuth
Unknown
Elevation
Unknown
Doppler factor
Unknown
Orbital elements
Apogee altitude
35,977.554 km
Perigee altitude
35,743.897 km
Semi-major axis
42,238.862 km
Eccentricity
0.00277
Inclination
13.1401°
RAAN
339.978°
Arg. of periapsis
178.6598°
True anomaly
189.30594°
Mean anomaly
189.3573°
Eccentric anomaly
189.3316°
Mean motion
0.25002 °/min
Orbital period
1,439.88 mins
BSTAR
0
Loading maneuver chart data...
Computing Atmospheric mass density...
Loading historical data...
Loading historical data...
Loading historical data...
Loading historical data...
Loading historical data...
Loading historical data...
Loading historical data...

Documentation

Showing up to 5 results
|